Regional Weather Roundup
Issued by NWS

Home | Current Version | Previous Version | Graphics & Text | Print | Product List | Glossary On
Versions: 1 2 3 4 5 6 7 8 9 10 11 12 13 14 15 16 17 18 19 20 21 22 23 24 25 26 27 28 29 30 31 32 33 34 35 36 37 38 39 40 41 42 43 44 45 46 47 48 49 50
000
ASUS43 KFSD 191910
RWRSD

WEATHER ROUNDUP FOR SOUTH DAKOTA
NATIONAL WEATHER SERVICE SIOUX FALLS SD
200 PM CDT FRI SEP 19 2014

NOTE: "FAIR" INDICATES FEW OR NO CLOUDS BELOW 12,000 FEET WITH NO
SIGNIFICANT WEATHER AND/OR OBSTRUCTIONS TO VISIBILITY.


SDZ001>005-009-010-012>017-192000-
NORTHWEST AND NORTH CENTRAL SOUTH DAKOTA

CITY           SKY/WX    TMP DP  RH WIND       PRES   REMARKS
BUFFALO          N/A     80  47  31 W20G26    29.75S
FAITH            N/A     81  51  35 NW15G24   29.76S
MOBRIDGE       MOSUNNY   81  61  50 NW10      29.66S
$$

SDZ012>016-024>037-041>051-057-063-072>074-192000-
SOUTHWEST AND SOUTH CENTRAL SOUTH DAKOTA

CITY           SKY/WX    TMP DP  RH WIND       PRES   REMARKS
RAPID CTY ARPT MOSUNNY   82  51  34 N16       29.83S
PIERRE         PTSUNNY   83  57  41 W17       29.70F
CUSTER         PTSUNNY   76  47  35 VRB3      29.97S
ELLSWORTH AFB  MOSUNNY   83  49  30 N16G22    29.82F
PHILIP         PTSUNNY   85  55  35 W12       29.76F
PINE RIDGE     SUNNY     82  55  39 CALM      29.85F
WINNER         FAIR      89  56  32 NW16      29.74S
$$

SDZ004>011-016>023-039-040-192000-
NORTHEAST SOUTH DAKOTA

CITY           SKY/WX    TMP DP  RH WIND       PRES   REMARKS
ABERDEEN       CLOUDY    72  65  78 SW8       29.65F
WATERTOWN      PTSUNNY   76  64  66 SW17G24   29.67F
SISSETON         N/A     71  65  81 W12       29.63F
$$

SDZ017-020-022-023-036>040-048>070-192000-
SOUTHEAST SOUTH DAKOTA

CITY           SKY/WX    TMP DP  RH WIND       PRES   REMARKS
SIOUX FALLS    MOSUNNY   84  64  50 SW14G29   29.71S
HURON          PTSUNNY   79  64  60 W7        29.66F
CHAMBERLAIN    PTSUNNY   85  60  43 W9        29.71S
MITCHELL       MOSUNNY   83  67  58 W9        29.69S
YANKTON        SUNNY     86  64  48 SW20G29   29.70S
$$

ABBREVIATIONS USED IN REMARKS
   TC - TEMPERATURE IN CELSIUS
  WCI - WIND CHILL INDEX
   HX - HEAT INDEX
  VSB - VISIBILITY




USA.gov is the U.S. government's official web portal to all federal, state and local government web resources and services.